Regional Weather Roundup
Issued by NWS

Home | Current Version | Previous Version | Text Only | Print | Product List | Glossary On
Versions: 1 2 3 4 5 6 7 8 9 10 11 12 13 14 15 16 17 18 19 20 21 22 23 24 25 26 27
000
ASUS45 KBOU 062007
RWRCO

WEATHER ROUNDUP FOR COLORADO
NATIONAL WEATHER SERVICE DENVER/BOULDER CO
100 PM MST TUE DEC 06 2016

NOTE: "FAIR" INDICATES FEW OR NO CLOUDS BELOW 12000 FEET WITH NO
SIGNIFICANT WEATHER AND/OR OBSTRUCTIONS TO VISIBILITY.

COZ001>005-013-030-031-062100-
...NORTHWEST COLORADO...

CITY           SKY/WX    TMP DP  RH WIND       PRES   REMARKS
CRAIG          PTSUNNY   24   4  42 E12       29.75F WCI  13
HAYDEN         FAIR      19   3  49 SE8       29.73F WCI   9
MEEKER         FAIR      24   9  52 S3        29.71F
MOUNT WERNER   NOT AVBL
STEAMBOAT SPGS CLOUDY    15   1  52 CALM      29.73F
WALDEN           N/A     12   0  57 NW5       29.71F WCI   4
$$

COZ006>008-011-062100-
...WEST CENTRAL VALLEYS...

CITY           SKY/WX    TMP DP  RH WIND       PRES   REMARKS
GRAND JUNCTION CLOUDY    32   6  33 CALM      29.75F
MONTROSE       PTSUNNY   37  12  35 MISG      29.74F
EAGLE          CLOUDY    21   9  58 CALM      29.76F
RIFLE          PTSUNNY   27   8  44 CALM      29.75F
DELTA          NOT AVBL
NUCLA          NOT AVBL
$$

COZ017>023-064>068-062100-
...SOUTHWEST COLORADO...

CITY           SKY/WX    TMP DP  RH WIND       PRES   REMARKS
DURANGO        PTSUNNY   38  15  39 SW12G17   29.79F
CORTEZ         CLOUDY    43  20  39 SW13      29.77F
PAGOSA SPRINGS NOT AVBL
TELLURIDE      NOT AVBL
WOLF CREEK PAS CLOUDY    12  10  92 S16G26    29.76F WCI  -4
$$

COZ009-010-012-014-032>034-037-058>063-062100-
...CENTRAL COLORADO...

CITY           SKY/WX    TMP DP  RH WIND       PRES   REMARKS
ASPEN          CLOUDY    23  11  60 NW5       29.67F WCI  17
BUENA VISTA    NOT AVBL
COPPER MTN     NOT AVBL
BERTHOUD PASS  LGT SNOW   3  -8  60 W8G17     29.60F WCI -10
COTTONWOOD PAS LGT SNOW  27  14  59 W16G28    29.65F WCI  14
GUNNISON       FLURRIES  24   9  52 NE3       29.73F
KREMMLING      CLOUDY    21   9  58 CALM      29.75F
LEADVILLE      LGT SNOW  16  10  77 N8        29.65F VSB 1   WCI   5
MONARCH PASS   SNOW      12   9  85 SW30G37   29.76F VSB 1/4 WCI  -9
SALIDA         NOT AVBL
SUNLIGHT       CLOUDY    14   9  79 S7G17     29.69F HAZE    WCI   4
WILKERSON PASS CLOUDY    23   0  36 S7G22     29.66F WCI  15
$$

COZ069>075-062100-
...SAN LUIS VALLEY/SANGRE DE CRISTO MOUNTAINS...

CITY           SKY/WX    TMP DP  RH WIND       PRES   REMARKS
ALAMOSA        FAIR      38  18  44 SW18G28   29.74F
LA VETA PASS   CLOUDY    25  12  58 N14G35    29.73F WCI  13
SAGUACHE       PTSUNNY   32   9  37 SE8       29.71F WCI  25
$$

COZ035-036-038>040-062100-
...NORTHERN COLORADO FRONT RANGE...

CITY           SKY/WX    TMP DP  RH WIND       PRES   REMARKS
DENVER INTL AP PTSUNNY   30   3  31 SE20      29.81F WCI  17
DMNS CITY PARK   N/A     31   3  30 N3        29.82F
AURORA         NOT AVBL
FRONT RANGE AP MOSUNNY   30   3  31 SE16G24   29.84F WCI  19
ERIE MUNI ARPT CLOUDY    30   2  29 CALM      29.84F
BOULDER MUN AP CLOUDY    28   3  34 NW3       29.84F
CENTENNIAL     PTSUNNY   27   2  34 S12       29.80F WCI  17
BROOMFIELD     NOT AVBL
FORT COLLINS   FAIR      27   0  31 NW10      29.87F WCI  17
LONGMONT       CLOUDY    34   1  25 E7        29.87F WCI  28
$$

COZ041-046-047-076>085-087-088-062100-
...PIKES PEAK/PALMER DIVIDE AND SOUTHERN FOOTHILLS...

CITY           SKY/WX    TMP DP  RH WIND       PRES   REMARKS
COLO. SPRINGS  FAIR      23  -1  35 S18G31    29.84F WCI   9
A. F. ACADEMY  NOT AVBL
SCHRIEVER AFB  NOT AVBL
ELLICOTT       FAIR     N/A N/A N/A S14G23    29.84F
FALCON         NOT AVBL
FORT CARSON    NOT AVBL
LIMON          FAIR      26  -7  23 SE8       29.89F WCI  18
MONUMENT HILL  PTSUNNY   21  -2  35 S18G26    29.79F WCI   6
TRINIDAD       FAIR      34   4  28 E6        29.81F WCI  29
$$

COZ042>045-048>051-090-091-062100-
...NORTHEAST COLORADO...

CITY           SKY/WX    TMP DP  RH WIND       PRES   REMARKS
GREELEY ARPT   FAIR      29  -3  25 E10       29.89F WCI  20
AKRON          FAIR      28 -12  17 N9        29.91F WCI  19
BURLINGTON     FAIR      31  -5  21 S5        29.96F WCI  26
WRAY           NOT AVBL
STERLING       FAIR      32  -6  19 NW8       29.93F WCI  25
HOLYOKE        FAIR      36  -4  18 W3        29.97F
FORT MORGAN    FAIR      32 -10  16 CALM      29.91F
$$

COZ086-089-092>099-062100-
...SOUTHEAST COLORADO...

CITY           SKY/WX    TMP DP  RH WIND       PRES   REMARKS
PUEBLO         FAIR      31   2  29 SE15      29.90F WCI  20
LA JUNTA       FAIR      32   1  26 E16       29.94F WCI  21
LAMAR          FAIR      31   1  28 SE8       29.98F WCI  23
SPRINGFIELD      N/A     28  -1  28 S13       29.97F WCI  17
$$




USA.gov is the U.S. government's official web portal to all federal, state and local government web resources and services.